COSMOS 2491 DEB, 57559

Orbit data source: Space-Track

COSMOS 2491 DEB, 57559 is space debris in LEO originally from a launch on Wed, 25 Dec 2013 UTC launched from the Plesetsk Missile And Space Complex (PKMTR). Debris objects in space refer to the collection of defunct objects orbiting the Earth. Examples of debris include non-operational satellites, rocket bodies, and fragments generated from explosions, collisions, or faulty payload assembly.

Loading next visibility...
Identifier
57559, 2013-076AW
Orbit
LEO
Country
Flag of CISCIS
Related business
Manufacturer
TsNIIKhM
Mission
Spacecraft
Bus & Motor
Unknown
Mass
Unknown
Launch date (UTC)
2013-12-25 (13 years ago)
Launch vehicle
Unknown
Launch site
Plesetsk Missile And Space Complex (PKMTR)
Object type
Payload
Rocket body
Debris
Shape & HBR
Unknown shape, 0.1 m
Radar Cross Section
Small (<0.1 m²)

Expand to show TLE details & history
Last TLE update: 2 weeks ago

TLE from 2 weeks ago
0 COSMOS 2491 DEB
1 57559U 13076AW  26190.19858118  .00000375  00000-0  25415-2 0  9991
2 57559  82.4838 153.4151 0023634  47.9571 312.3517 12.45693845143879
Epoch: 2026-07-09T04:45Z
TLE epoch observation values (Epoch: 2026-07-09T04:45:57.413Z)
Latitude
0.00001°
Longitude
154.78194°
Altitude
1,472.768 km
Speed
7.132 km/s
True Right ascension
10h 13m 39s
True Declination
0° 00' 00"
Sunlit
Object was in daylight at epoch
Visualization orbit readout
Latitude
Unknown
Longitude
Unknown
Altitude
Unknown
Speed
Unknown
Apparent Right ascension
Unknown
Apparent Declination
Unknown
Sunlit
N/A
Visualization observer readout
Local Sidereal Time
20:26:12
Azimuth
Unknown
Elevation
Unknown
Doppler factor
Unknown
Orbital elements
Apogee altitude
1,498.478 km
Perigee altitude
1,461.334 km
Semi-major axis
7,858.043 km
Eccentricity
0.00236
Inclination
82.4838°
RAAN
153.4151°
Arg. of periapsis
47.9571°
True anomaly
312.15115°
Mean anomaly
312.3517°
Eccentric anomaly
312.25147°
Mean motion
3.11581 °/min
Orbital period
115.54 mins
BSTAR
0.0025415
Loading maneuver chart data...
Computing Atmospheric mass density...
Loading historical data...
Loading historical data...
Loading historical data...
Loading historical data...
Loading historical data...
Loading historical data...
Loading historical data...

Documentation

Showing up to 5 results
|